Location: Sceptre
(50.8619°N, 109.2670°W)
Time: 11:25:30
(UTC+00:00)

Vanguard 2 - Visible Passes

Search period start: 28 May 2022 00:00
Search period end: 07 June 2022 00:00
Orbit: 552 x 2935 km, 32.9° (Epoch: 28 May)

Date Brightness Start Highest point End Pass type
(mag) Time Alt. Az. Time Alt. Az. Time Alt. Az.
30 May 10.9 10:00:55 10° SE 10:02:48 11° SE 10:04:48 10° ESE visible
31 May 10.7 10:14:24 10° SSE 10:19:10 14° SE 10:24:54 10° ESE visible
04 Jun 10.4 09:16:40 10° SSE 09:18:31 11° SE 09:20:30 10° SE visible
05 Jun 10.2 09:31:13 10° S 09:35:00 14° SE 09:39:37 10° ESE visible
06 Jun 10.0 09:46:59 10° S 09:51:36 17° SSE 09:57:34 10° ESE visible
